QPF
0.00 0.00 0.00 0.01 0.02 0.02 0.01 0.01 0.01 0.02 0.02 0.02 0.02 0.02 0.01 0.02 0.02 0.03 0.05 0.05 0.05 0.04 0.03 0.03 0.04 0.04 0.03 0.03 0.03 0.03 0.04 0.04 0.04 0.06 0.08 0.10 0.12 0.14 0.16 0.18 0.20 0.23 0.20
0.00 0.00 0.00 0.01 0.02 0.02 0.02 0.01 0.01 0.01 0.02 0.02 0.02 0.02 0.02 0.02 0.02 0.03 0.05 0.05 0.05 0.04 0.03 0.02 0.03 0.03 0.03 0.03 0.03 0.03 0.03 0.03 0.04 0.08 0.11 0.12 0.13 0.11 0.13 0.18 0.23 0.24 0.25
0.00 0.00 0.00 0.01 0.02 0.02 0.02 0.03 0.02 0.02 0.02 0.02 0.02 0.02 0.02 0.02 0.02 0.03 0.04 0.05 0.05 0.04 0.03 0.03 0.03 0.03 0.03 0.03 0.04 0.03 0.03 0.02 0.04 0.10 0.15 0.20 0.16 0.13 0.11 0.14 0.20 0.23 0.27
0.00 0.00 0.00 0.00 0.02 0.02 0.02 0.02 0.03 0.03 0.03 0.02 0.02 0.02 0.02 0.02 0.02 0.03 0.05 0.06 0.07 0.06 0.07 0.05 0.03 0.02 0.02 0.03 0.03 0.03 0.03 0.03 0.05 0.10 0.15 0.20 0.16 0.16 0.16 0.16 0.22 0.23 0.25
0.00 0.00 0.00 0.00 0.00 0.01 0.01 0.02 0.02 0.02 0.02 0.02 0.02 0.03 0.03 0.04 0.04 0.04 0.05 0.06 0.07 0.08 0.08 0.06 0.04 0.03 0.02 0.02 0.03 0.04 0.04 0.05 0.05 0.07 0.10 0.14 0.15 0.16 0.22 0.27 0.32 0.27 0.23
0.00 0.00 0.00 0.00 0.00 0.00 0.00 0.01 0.01 0.02 0.02 0.02 0.03 0.07 0.07 0.05 0.05 0.05 0.06 0.06 0.06 0.07 0.06 0.06 0.06 0.05 0.04 0.05 0.05 0.05 0.04 0.05 0.07 0.08 0.10 0.13 0.15 0.13 0.19 0.34 0.47 0.36 0.24
0.00 0.00 0.00 0.00 0.00 0.00 0.00 0.01 0.01 0.01 0.01 0.02 0.02 0.04 0.07 0.06 0.03 0.04 0.08 0.05 0.03 0.04 0.05 0.05 0.05 0.05 0.06 0.08 0.07 0.06 0.06 0.06 0.07 0.09 0.11 0.16 0.17 0.17 0.21 0.29 0.44 0.41 0.28
0.00 0.00 0.00 0.00 0.00 0.00 0.00 0.01 0.01 0.01 0.01 0.01 0.01 0.01 0.02 0.02 0.01 0.01 0.04 0.03 0.02 0.02 0.04 0.04 0.04 0.05 0.07 0.07 0.06 0.07 0.08 0.07 0.07 0.08 0.13 0.19 0.19 0.23 0.28 0.32 0.38 0.37 0.28
0.00 0.00 0.00 0.00 0.00 0.00 0.00 0.00 0.00 0.01 0.01 0.01 0.01 0.01 0.01 0.01 0.01 0.01 0.01 0.02 0.01 0.02 0.02 0.03 0.04 0.05 0.07 0.07 0.06 0.06 0.09 0.09 0.08 0.09 0.15 0.18 0.16 0.20 0.23 0.26 0.35 0.37 0.29
0.00 0.00 0.00 0.00 0.00 0.01 0.01 0.00 0.00 0.00 0.01 0.01 0.00 0.00 0.00 0.01 0.01 0.02 0.01 0.02 0.01 0.01 0.02 0.03 0.03 0.03 0.04 0.05 0.05 0.05 0.07 0.10 0.12 0.14 0.17 0.16 0.16 0.19 0.17 0.16 0.23 0.28 0.31
0.00 0.00 0.00 0.00 0.00 0.01 0.01 0.00 0.00 0.00 0.00 0.00 0.01 0.01 0.01 0.03 0.04 0.03 0.02 0.01 0.01 0.01 0.02 0.04 0.04 0.02 0.03 0.04 0.04 0.04 0.06 0.12 0.16 0.18 0.17 0.16 0.15 0.15 0.14 0.14 0.14 0.14 0.19
0.00 0.00 0.00 0.00 0.00 0.01 0.01 0.01 0.02 0.01 0.01 0.01 0.02 0.03 0.05 0.08 0.08 0.06 0.04 0.01 0.01 0.02 0.02 0.04 0.06 0.04 0.03 0.03 0.04 0.05 0.06 0.09 0.13 0.17 0.16 0.14 0.11 0.12 0.12 0.12 0.12 0.12 0.12
0.00 0.00 0.00 0.00 0.00 0.00 0.01 0.01 0.03 0.03 0.03 0.03 0.04 0.04 0.06 0.07 0.07 0.06 0.05 0.04 0.03 0.03 0.03 0.04 0.05 0.06 0.06 0.07 0.05 0.05 0.05 0.07 0.09 0.15 0.17 0.14 0.10 0.11 0.10 0.12 0.12 0.10 0.09
0.00 0.00 0.00 0.00 0.00 0.00 0.01 0.01 0.02 0.03 0.07 0.06 0.04 0.03 0.04 0.05 0.05 0.05 0.05 0.05 0.04 0.04 0.05 0.05 0.07 0.06 0.04 0.04 0.04 0.03 0.03 0.05 0.05 0.10 0.18 0.14 0.10 0.09 0.09 0.10 0.08 0.07 0.06
0.00 0.00 0.00 0.00 0.00 0.00 0.01 0.02 0.02 0.03 0.06 0.03 0.02 0.02 0.03 0.03 0.03 0.03 0.03 0.03 0.04 0.04 0.04 0.05 0.06 0.06 0.04 0.04 0.03 0.03 0.03 0.03 0.05 0.06 0.12 0.12 0.10 0.10 0.10 0.08 0.07 0.07 0.06
0.00 0.00 0.00 0.00 0.00 0.00 0.01 0.01 0.02 0.03 0.03 0.01 0.02 0.03 0.02 0.02 0.02 0.03 0.03 0.03 0.04 0.03 0.04 0.05 0.05 0.06 0.06 0.06 0.04 0.03 0.03 0.03 0.03 0.04 0.09 0.14 0.11 0.09 0.09 0.11 0.08 0.07 0.07
0.00 0.00 0.00 0.00 0.00 0.00 0.01 0.02 0.03 0.02 0.03 0.02 0.02 0.02 0.02 0.02 0.03 0.02 0.02 0.03 0.04 0.03 0.04 0.05 0.05 0.06 0.06 0.05 0.05 0.05 0.05 0.03 0.02 0.03 0.05 0.13 0.13 0.09 0.08 0.10 0.10 0.07 0.07
0.00 0.00 0.00 0.00 0.00 0.00 0.01 0.02 0.02 0.02 0.02 0.02 0.02 0.02 0.02 0.03 0.02 0.03 0.03 0.03 0.04 0.04 0.04 0.06 0.08 0.06 0.06 0.06 0.06 0.05 0.05 0.04 0.03 0.02 0.03 0.06 0.13 0.12 0.09 0.06 0.09 0.09 0.07
0.00 0.00 0.00 0.00 0.01 0.01 0.01 0.01 0.02 0.02 0.02 0.03 0.02 0.03 0.02 0.03 0.03 0.03 0.04 0.04 0.04 0.05 0.06 0.06 0.07 0.06 0.06 0.05 0.04 0.04 0.03 0.04 0.03 0.02 0.03 0.05 0.09 0.11 0.09 0.07 0.05 0.06 0.07
0.01 0.00 0.00 0.00 0.01 0.01 0.01 0.01 0.02 0.02 0.03 0.04 0.04 0.05 0.04 0.04 0.03 0.04 0.05 0.04 0.04 0.05 0.06 0.08 0.08 0.06 0.06 0.06 0.04 0.04 0.03 0.03 0.03 0.02 0.02 0.03 0.05 0.05 0.05 0.06 0.07 0.05 0.05
0.01 0.00 0.01 0.01 0.01 0.01 0.02 0.02 0.03 0.03 0.03 0.04 0.04 0.04 0.04 0.03 0.04 0.06 0.05 0.05 0.04 0.05 0.06 0.07 0.07 0.05 0.05 0.06 0.05 0.04 0.03 0.03 0.02 0.02 0.03 0.03 0.03 0.04 0.05 0.06 0.07 0.07 0.06
0.01 0.00 0.01 0.01 0.01 0.01 0.02 0.02 0.02 0.02 0.02 0.02 0.03 0.04 0.04 0.04 0.06 0.06 0.06 0.05 0.05 0.06 0.06 0.08 0.07 0.06 0.04 0.05 0.06 0.07 0.06 0.05 0.04 0.03 0.04 0.05 0.04 0.04 0.06 0.06 0.07 0.07 0.08
0.01 0.00 0.01 0.01 0.01 0.02 0.02 0.02 0.02 0.02 0.02 0.03 0.04 0.04 0.03 0.04 0.05 0.06 0.05 0.06 0.06 0.05 0.06 0.08 0.08 0.06 0.05 0.06 0.06 0.07 0.07 0.07 0.07 0.05 0.05 0.04 0.04 0.05 0.05 0.04 0.05 0.06 0.06
0.01 0.01 0.01 0.01 0.01 0.02 0.03 0.03 0.02 0.02 0.03 0.03 0.03 0.04 0.04 0.03 0.04 0.05 0.06 0.06 0.06 0.04 0.05 0.06 0.07 0.07 0.06 0.05 0.07 0.06 0.06 0.07 0.07 0.09 0.08 0.04 0.05 0.05 0.03 0.03 0.04 0.05 0.07
0.01 0.01 0.02 0.02 0.02 0.02 0.02 0.02 0.03 0.03 0.04 0.04 0.04 0.06 0.06 0.04 0.04 0.06 0.06 0.06 0.07 0.06 0.06 0.06 0.08 0.09 0.07 0.06 0.07 0.07 0.07 0.07 0.06 0.07 0.08 0.07 0.07 0.07 0.05 0.04 0.04 0.05 0.07
0.01 0.01 0.02 0.02 0.02 0.02 0.01 0.02 0.02 0.02 0.04 0.06 0.06 0.05 0.04 0.05 0.04 0.05 0.05 0.06 0.06 0.06 0.07 0.06 0.08 0.10 0.11 0.10 0.09 0.08 0.08 0.08 0.07 0.08 0.07 0.07 0.07 0.04 0.04 0.03 0.03 0.03 0.04
MSLP
1009.49 1009.64 1009.95 1010.41 1010.96 1011.49 1011.95 1012.27 1012.43 1012.47 1012.43 1012.40 1012.42 1012.52 1012.70 1012.93 1013.17 1013.39 1013.53 1013.60 1013.63 1013.63 1013.62 1013.64 1013.69 1013.75 1013.83 1013.89 1013.95 1014.00 1014.07 1014.17 1014.33 1014.56 1014.84 1015.14 1015.45 1015.73 1015.97 1016.16 1016.29 1016.40 1016.51
1009.53 1009.86 1010.34 1010.90 1011.47 1011.98 1012.35 1012.57 1012.64 1012.61 1012.56 1012.54 1012.62 1012.79 1013.04 1013.33 1013.60 1013.82 1013.95 1014.01 1014.03 1014.02 1014.03 1014.08 1014.16 1014.24 1014.33 1014.39 1014.42 1014.43 1014.46 1014.54 1014.68 1014.90 1015.19 1015.52 1015.85 1016.15 1016.40 1016.58 1016.70 1016.79 1016.87
1009.59 1010.09 1010.69 1011.34 1011.93 1012.42 1012.73 1012.88 1012.89 1012.83 1012.78 1012.79 1012.91 1013.14 1013.43 1013.74 1014.01 1014.20 1014.30 1014.33 1014.33 1014.33 1014.37 1014.45 1014.57 1014.69 1014.78 1014.83 1014.83 1014.80 1014.78 1014.82 1014.93 1015.14 1015.43 1015.78 1016.14 1016.47 1016.73 1016.93 1017.05 1017.14 1017.21
1009.62 1010.24 1010.94 1011.65 1012.28 1012.77 1013.06 1013.18 1013.18 1013.13 1013.10 1013.16 1013.32 1013.58 1013.88 1014.17 1014.40 1014.54 1014.59 1014.58 1014.56 1014.58 1014.65 1014.77 1014.93 1015.09 1015.19 1015.22 1015.18 1015.10 1015.03 1015.01 1015.09 1015.28 1015.58 1015.94 1016.33 1016.68 1016.97 1017.19 1017.34 1017.43 1017.51
1009.56 1010.26 1011.03 1011.80 1012.48 1012.99 1013.31 1013.46 1013.49 1013.48 1013.50 1013.61 1013.81 1014.08 1014.37 1014.62 1014.79 1014.86 1014.85 1014.80 1014.77 1014.79 1014.90 1015.07 1015.27 1015.44 1015.54 1015.55 1015.47 1015.34 1015.21 1015.14 1015.17 1015.35 1015.65 1016.02 1016.43 1016.81 1017.13 1017.38 1017.55 1017.67 1017.78
1009.41 1010.15 1010.97 1011.79 1012.51 1013.07 1013.45 1013.66 1013.77 1013.83 1013.92 1014.09 1014.33 1014.60 1014.86 1015.07 1015.17 1015.18 1015.12 1015.03 1014.99 1015.03 1015.16 1015.36 1015.58 1015.77 1015.86 1015.83 1015.71 1015.52 1015.33 1015.22 1015.23 1015.39 1015.68 1016.07 1016.50 1016.90 1017.24 1017.51 1017.71 1017.85 1017.98
1009.21 1009.95 1010.79 1011.64 1012.41 1013.03 1013.48 1013.78 1013.97 1014.12 1014.30 1014.52 1014.79 1015.07 1015.31 1015.47 1015.53 1015.49 1015.40 1015.30 1015.25 1015.30 1015.45 1015.66 1015.89 1016.05 1016.12 1016.05 1015.88 1015.65 1015.42 1015.28 1015.27 1015.43 1015.73 1016.12 1016.56 1016.97 1017.33 1017.61 1017.82 1017.98 1018.12
1009.03 1009.74 1010.58 1011.44 1012.24 1012.91 1013.42 1013.79 1014.07 1014.30 1014.54 1014.82 1015.11 1015.40 1015.64 1015.78 1015.83 1015.77 1015.67 1015.58 1015.54 1015.60 1015.75 1015.96 1016.16 1016.30 1016.32 1016.21 1015.99 1015.72 1015.48 1015.33 1015.32 1015.48 1015.79 1016.20 1016.64 1017.05 1017.40 1017.67 1017.87 1018.03 1018.18
1008.96 1009.63 1010.43 1011.28 1012.08 1012.77 1013.31 1013.73 1014.05 1014.34 1014.62 1014.93 1015.25 1015.55 1015.80 1015.96 1016.01 1015.98 1015.90 1015.84 1015.82 1015.89 1016.03 1016.22 1016.38 1016.47 1016.43 1016.28 1016.03 1015.74 1015.49 1015.35 1015.37 1015.55 1015.88 1016.29 1016.73 1017.14 1017.47 1017.72 1017.89 1018.02 1018.16
1009.05 1009.68 1010.43 1011.24 1012.00 1012.66 1013.20 1013.61 1013.95 1014.24 1014.53 1014.85 1015.19 1015.50 1015.77 1015.96 1016.06 1016.08 1016.05 1016.03 1016.05 1016.12 1016.25 1016.40 1016.51 1016.53 1016.45 1016.26 1015.99 1015.70 1015.47 1015.36 1015.41 1015.62 1015.97 1016.40 1016.83 1017.22 1017.53 1017.73 1017.87 1017.97 1018.07
1009.32 1009.91 1010.61 1011.34 1012.04 1012.64 1013.12 1013.49 1013.79 1014.05 1014.33 1014.63 1014.96 1015.28 1015.58 1015.81 1015.96 1016.04 1016.09 1016.12 1016.17 1016.25 1016.36 1016.46 1016.52 1016.49 1016.36 1016.15 1015.87 1015.61 1015.41 1015.34 1015.43 1015.68 1016.05 1016.48 1016.91 1017.28 1017.55 1017.73 1017.84 1017.90 1017.96
1009.72 1010.27 1010.91 1011.57 1012.18 1012.69 1013.09 1013.39 1013.61 1013.82 1014.05 1014.32 1014.62 1014.95 1015.26 1015.53 1015.74 1015.89 1015.99 1016.08 1016.16 1016.24 1016.33 1016.40 1016.41 1016.34 1016.19 1015.97 1015.71 1015.48 1015.33 1015.30 1015.43 1015.71 1016.09 1016.52 1016.93 1017.28 1017.54 1017.71 1017.78 1017.82 1017.86
1010.12 1010.66 1011.24 1011.83 1012.35 1012.78 1013.09 1013.30 1013.46 1013.60 1013.78 1014.00 1014.27 1014.58 1014.90 1015.20 1015.45 1015.64 1015.79 1015.91 1016.01 1016.10 1016.17 1016.21 1016.20 1016.11 1015.96 1015.75 1015.53 1015.34 1015.24 1015.26 1015.41 1015.69 1016.07 1016.48 1016.88 1017.22 1017.48 1017.64 1017.72 1017.76 1017.78
1010.41 1010.94 1011.50 1012.03 1012.48 1012.83 1013.08 1013.23 1013.34 1013.43 1013.55 1013.73 1013.97 1014.26 1014.56 1014.85 1015.12 1015.34 1015.52 1015.66 1015.77 1015.86 1015.92 1015.95 1015.92 1015.85 1015.72 1015.55 1015.37 1015.23 1015.17 1015.21 1015.37 1015.63 1015.98 1016.36 1016.74 1017.07 1017.33 1017.51 1017.62 1017.68 1017.73
1010.48 1011.02 1011.56 1012.05 1012.47 1012.79 1013.01 1013.15 1013.23 1013.31 1013.41 1013.56 1013.77 1014.02 1014.29 1014.56 1014.82 1015.03 1015.21 1015.35 1015.46 1015.55 1015.61 1015.65 1015.64 1015.59 1015.51 1015.39 1015.27 1015.18 1015.14 1015.18 1015.32 1015.54 1015.83 1016.15 1016.48 1016.80 1017.06 1017.28 1017.45 1017.57 1017.66
1010.26 1010.82 1011.36 1011.85 1012.27 1012.60 1012.84 1013.01 1013.13 1013.23 1013.34 1013.49 1013.67 1013.89 1014.12 1014.35 1014.57 1014.75 1014.91 1015.04 1015.15 1015.24 1015.32 1015.37 1015.40 1015.40 1015.36 1015.31 1015.24 1015.19 1015.16 1015.18 1015.26 1015.41 1015.61 1015.85 1016.12 1016.40 1016.66 1016.92 1017.15 1017.34 1017.51
1009.80 1010.37 1010.91 1011.42 1011.87 1012.25 1012.56 1012.81 1013.00 1013.17 1013.33 1013.49 1013.66 1013.84 1014.03 1014.21 1014.38 1014.52 1014.65 1014.77 1014.88 1014.97 1015.07 1015.15 1015.22 1015.27 1015.29 1015.30 1015.28 1015.24 1015.21 1015.20 1015.21 1015.25 1015.34 1015.48 1015.66 1015.88 1016.13 1016.41 1016.69 1016.96 1017.21
1009.18 1009.76 1010.32 1010.85 1011.34 1011.80 1012.20 1012.55 1012.85 1013.11 1013.33 1013.52 1013.69 1013.84 1013.98 1014.11 1014.23 1014.34 1014.44 1014.54 1014.65 1014.77 1014.88 1015.00 1015.11 1015.21 1015.28 1015.32 1015.34 1015.32 1015.27 1015.21 1015.14 1015.08 1015.05 1015.06 1015.14 1015.27 1015.48 1015.75 1016.06 1016.40 1016.72
1008.54 1009.11 1009.67 1010.23 1010.77 1011.30 1011.80 1012.27 1012.67 1013.03 1013.31 1013.53 1013.71 1013.83 1013.93 1014.01 1014.09 1014.17 1014.26 1014.36 1014.48 1014.61 1014.75 1014.89 1015.03 1015.16 1015.27 1015.34 1015.37 1015.36 1015.30 1015.20 1015.06 1014.90 1014.76 1014.65 1014.60 1014.64 1014.77 1015.00 1015.30 1015.66 1016.03
1008.00 1008.55 1009.10 1009.66 1010.24 1010.83 1011.41 1011.97 1012.47 1012.91 1013.25 1013.50 1013.66 1013.77 1013.83 1013.88 1013.93 1013.99 1014.09 1014.20 1014.34 1014.48 1014.64 1014.79 1014.95 1015.08 1015.20 1015.28 1015.33 1015.32 1015.26 1015.13 1014.95 1014.73 1014.49 1014.28 1014.11 1014.04 1014.08 1014.23 1014.49 1014.83 1015.22
1007.61 1008.14 1008.66 1009.20 1009.79 1010.41 1011.06 1011.68 1012.26 1012.74 1013.12 1013.38 1013.53 1013.62 1013.65 1013.68 1013.72 1013.78 1013.89 1014.03 1014.18 1014.35 1014.51 1014.66 1014.79 1014.91 1015.02 1015.09 1015.14 1015.15 1015.10 1014.99 1014.80 1014.56 1014.28 1013.99 1013.74 1013.57 1013.49 1013.54 1013.72 1014.01 1014.37
1007.37 1007.85 1008.33 1008.84 1009.43 1010.06 1010.73 1011.40 1012.01 1012.52 1012.91 1013.17 1013.31 1013.37 1013.38 1013.40 1013.43 1013.52 1013.65 1013.82 1013.99 1014.16 1014.32 1014.44 1014.54 1014.61 1014.68 1014.74 1014.78 1014.81 1014.81 1014.74 1014.61 1014.41 1014.14 1013.84 1013.53 1013.27 1013.10 1013.04 1013.11 1013.31 1013.61
1007.17 1007.60 1008.04 1008.52 1009.08 1009.71 1010.40 1011.08 1011.71 1012.24 1012.63 1012.87 1012.99 1013.03 1013.03 1013.04 1013.09 1013.20 1013.35 1013.55 1013.74 1013.91 1014.04 1014.11 1014.15 1014.16 1014.17 1014.20 1014.25 1014.32 1014.37 1014.40 1014.37 1014.26 1014.06 1013.80 1013.50 1013.20 1012.95 1012.79 1012.76 1012.86 1013.08
1006.89 1007.27 1007.66 1008.11 1008.65 1009.28 1009.98 1010.68 1011.33 1011.87 1012.26 1012.49 1012.60 1012.63 1012.62 1012.64 1012.70 1012.83 1013.02 1013.23 1013.43 1013.59 1013.67 1013.69 1013.66 1013.59 1013.54 1013.53 1013.58 1013.68 1013.82 1013.97 1014.08 1014.11 1014.04 1013.87 1013.63 1013.34 1013.06 1012.83 1012.71 1012.71 1012.84
1006.40 1006.73 1007.08 1007.51 1008.05 1008.71 1009.43 1010.16 1010.84 1011.41 1011.82 1012.06 1012.17 1012.20 1012.20 1012.22 1012.30 1012.46 1012.67 1012.90 1013.09 1013.23 1013.27 1013.22 1013.10 1012.96 1012.84 1012.79 1012.83 1012.98 1013.21 1013.48 1013.74 1013.95 1014.04 1014.01 1013.87 1013.64 1013.37 1013.11 1012.93 1012.85 1012.91
1005.65 1005.93 1006.26 1006.69 1007.25 1007.95 1008.72 1009.52 1010.26 1010.88 1011.33 1011.60 1011.74 1011.78 1011.80 1011.84 1011.94 1012.11 1012.34 1012.57 1012.77 1012.88 1012.88 1012.77 1012.59 1012.37 1012.18 1012.09 1012.13 1012.30 1012.61 1013.00 1013.41 1013.78 1014.04 1014.17 1014.16 1014.03 1013.82 1013.58 1013.37 1013.25 1013.24
Thickness
5810 5805 5799 5796 5793 5791 5789 5787 5785 5783 5781 5779 5778 5777 5776 5775 5774 5773 5773 5772 5772 5773 5773 5773 5772 5771 5770 5769 5769 5770 5771 5771 5771 5771 5770 5769 5767 5765 5764 5764 5762 5760 5758
5813 5805 5798 5795 5792 5790 5788 5786 5784 5782 5780 5778 5777 5776 5775 5773 5773 5771 5771 5771 5771 5770 5770 5770 5770 5769 5768 5767 5768 5769 5769 5770 5770 5770 5769 5768 5766 5765 5764 5764 5762 5759 5757
5813 5805 5799 5795 5792 5789 5787 5785 5783 5781 5779 5777 5776 5774 5773 5772 5771 5770 5769 5769 5768 5768 5768 5767 5767 5766 5765 5766 5766 5767 5768 5768 5768 5768 5767 5766 5765 5764 5763 5762 5760 5758 5756
5813 5805 5798 5794 5791 5788 5786 5784 5782 5780 5778 5776 5774 5773 5771 5770 5769 5768 5767 5766 5765 5766 5765 5764 5764 5764 5763 5764 5764 5765 5765 5766 5767 5767 5766 5766 5765 5764 5762 5760 5759 5757 5755
5812 5805 5797 5793 5790 5787 5785 5783 5781 5778 5776 5774 5773 5771 5770 5769 5767 5767 5766 5764 5763 5763 5763 5762 5762 5762 5762 5762 5763 5763 5764 5764 5765 5766 5766 5766 5765 5763 5761 5759 5758 5756 5754
5812 5805 5797 5792 5789 5787 5784 5782 5780 5777 5775 5773 5772 5770 5769 5768 5766 5765 5765 5764 5762 5762 5761 5761 5760 5760 5760 5761 5761 5761 5762 5763 5764 5765 5766 5765 5764 5762 5761 5759 5758 5755 5753
5813 5806 5797 5792 5789 5786 5784 5781 5779 5777 5775 5773 5771 5769 5768 5767 5765 5765 5763 5762 5761 5761 5760 5759 5759 5759 5759 5760 5760 5760 5761 5762 5763 5763 5764 5764 5762 5761 5759 5758 5757 5755 5752
5815 5806 5798 5792 5789 5786 5783 5781 5778 5776 5774 5772 5771 5769 5768 5767 5765 5764 5763 5762 5760 5760 5759 5759 5758 5758 5759 5759 5759 5759 5760 5760 5763 5763 5763 5761 5761 5759 5758 5756 5755 5753 5751
5816 5807 5800 5794 5790 5786 5784 5781 5779 5776 5774 5772 5771 5769 5768 5767 5766 5764 5763 5762 5760 5759 5759 5758 5758 5758 5758 5758 5758 5758 5759 5760 5760 5761 5761 5759 5758 5758 5757 5755 5753 5752 5750
5816 5810 5804 5798 5793 5789 5785 5782 5779 5777 5775 5773 5771 5770 5769 5768 5766 5765 5764 5762 5761 5760 5759 5759 5758 5758 5758 5758 5758 5758 5759 5759 5759 5759 5758 5757 5756 5755 5754 5752 5751 5750 5748
5812 5810 5806 5800 5796 5793 5789 5784 5781 5778 5775 5774 5772 5771 5770 5770 5768 5767 5765 5763 5761 5761 5760 5759 5759 5758 5758 5758 5758 5758 5758 5758 5758 5758 5756 5755 5753 5753 5751 5750 5749 5748 5746
5807 5808 5806 5801 5797 5795 5792 5786 5783 5780 5776 5775 5773 5772 5771 5770 5770 5768 5765 5764 5762 5761 5761 5760 5760 5758 5758 5758 5758 5758 5757 5757 5757 5757 5755 5754 5753 5751 5750 5748 5747 5746 5744
5808 5807 5805 5802 5798 5795 5792 5787 5784 5782 5778 5776 5774 5773 5772 5770 5769 5767 5765 5764 5763 5762 5761 5761 5760 5759 5759 5759 5759 5758 5757 5757 5757 5756 5753 5753 5752 5750 5749 5747 5745 5744 5743
5808 5805 5804 5802 5797 5794 5791 5788 5785 5783 5779 5777 5774 5773 5771 5770 5768 5767 5766 5764 5763 5762 5761 5761 5759 5759 5759 5759 5759 5758 5758 5757 5755 5754 5752 5751 5751 5750 5748 5746 5744 5742 5741
5807 5805 5803 5800 5796 5793 5790 5787 5784 5782 5780 5778 5775 5772 5771 5769 5767 5767 5766 5764 5763 5762 5762 5760 5759 5758 5758 5758 5758 5757 5756 5755 5753 5752 5750 5749 5749 5748 5747 5745 5743 5741 5740
5806 5804 5803 5799 5795 5791 5788 5785 5783 5781 5779 5777 5774 5771 5769 5768 5767 5765 5763 5762 5761 5761 5760 5759 5758 5757 5756 5756 5755 5754 5753 5752 5751 5750 5748 5747 5746 5745 5744 5743 5742 5740 5739
5806 5803 5800 5798 5794 5789 5786 5783 5782 5780 5778 5776 5773 5770 5767 5766 5764 5763 5761 5760 5759 5759 5758 5757 5756 5755 5754 5754 5752 5751 5751 5750 5749 5748 5747 5745 5744 5743 5742 5742 5740 5739 5738
5806 5801 5798 5797 5792 5788 5784 5781 5780 5778 5776 5774 5772 5769 5766 5764 5762 5760 5758 5758 5758 5757 5756 5754 5752 5751 5750 5749 5748 5749 5748 5748 5747 5746 5745 5744 5742 5741 5740 5739 5738 5737 5737
5804 5799 5794 5793 5789 5786 5782 5780 5778 5776 5773 5771 5769 5766 5764 5761 5760 5758 5757 5756 5755 5754 5753 5752 5750 5748 5746 5745 5746 5746 5746 5745 5745 5745 5743 5742 5740 5739 5738 5737 5736 5735 5734
5801 5797 5793 5790 5787 5784 5781 5777 5775 5773 5771 5769 5766 5764 5761 5759 5757 5756 5755 5754 5753 5751 5750 5749 5746 5746 5744 5743 5744 5744 5743 5744 5743 5742 5741 5740 5739 5738 5736 5735 5734 5733 5732
5798 5794 5790 5786 5784 5781 5777 5773 5769 5767 5766 5765 5764 5761 5759 5757 5755 5754 5752 5750 5749 5748 5746 5745 5743 5741 5740 5741 5738 5736 5738 5741 5741 5740 5739 5738 5737 5736 5735 5733 5732 5732 5730
5795 5792 5788 5784 5781 5779 5776 5773 5770 5767 5765 5763 5762 5759 5757 5755 5753 5752 5749 5747 5747 5745 5743 5742 5740 5737 5737 5738 5733 5729 5726 5728 5733 5736 5735 5733 5733 5733 5733 5732 5730 5729 5728
5794 5790 5787 5783 5780 5777 5775 5772 5770 5766 5763 5760 5758 5756 5754 5753 5751 5749 5747 5745 5744 5742 5739 5738 5736 5733 5731 5733 5733 5726 5719 5716 5720 5727 5730 5731 5731 5730 5729 5729 5728 5727 5725
5794 5791 5786 5782 5778 5776 5773 5769 5764 5759 5755 5755 5755 5754 5752 5751 5749 5747 5745 5743 5741 5739 5737 5735 5733 5731 5728 5725 5727 5728 5725 5721 5715 5714 5720 5725 5727 5726 5726 5726 5726 5724 5723
5794 5790 5785 5780 5776 5773 5771 5767 5762 5758 5756 5755 5754 5751 5749 5747 5746 5744 5743 5740 5738 5736 5734 5732 5729 5727 5725 5723 5721 5721 5720 5719 5718 5712 5710 5714 5719 5721 5722 5722 5722 5721 5719
5791 5787 5783 5777 5773 5771 5768 5764 5760 5756 5754 5751 5748 5746 5745 5744 5743 5741 5740 5738 5736 5734 5731 5729 5727 5724 5722 5720 5719 5718 5715 5713 5711 5711 5707 5707 5709 5714 5718 5718 5718 5717 5716